Find Starlink 5936

NORAD ID: 56011 Int'l Des: 2023-042 Owner: SPXS Country: US Constellation: starlink operational
LEOCIRCULAR

Live Position

Loading 3D Globe...

About Starlink 5936

Description loading...

Upcoming Passes

Passes for default location (London). Set your location on the main map for personalized predictions.

Altitude History

Loading altitude history...

Two-Line Element Set

1 56011U 23042AB 26109.86148919 -.00000561 00000-0 -10860-4 0 9991
2 56011 43.0021 172.5845 0001294 267.2843 92.7861 15.27574835169337
Epoch: Apr 19, 2026 • Age: 19 hours

Current Status

Altitude 494.8 km
Velocity 7.62 km/s
Sub-Earth Point -41.27°S, 22.43°E
Launch Date Mar 24, 2023
Age 3 years
Type internet

Technical Details

Classification Payload
Mass 305.00 kg
Dry Mass 290.00 kg
Total Mass 305.00 kg
Length 0.20 m
Diameter 2.80 m
Span 9.00 m
Shape Box + pan
Manufacturer SPXS
Bus Type Starlink
Phase Status In Orbit
Owner/State SPXS/US

Most Searched